ネオワイズ彗星

C/2016 B1 ( NEOWISE )

English version
Home page
Updated on November 14, 2016

---------------------------------------------------------------------

・ プロフィール

発見日 2016年1月17日
発見光度 19等
発見者 Near-Earth Object Wide-field Infrared Survey Explorer

・ 写真集

・ 軌道要素

Epoch 2016 Nov. 28.0 TT = JDT 2457720.5
T 2016 Dec. 4.72290 TT                                  MPCW
q   3.2060980            (2000.0)            P               Q
z  +0.0022842      Peri.    8.56177     -0.53482118     +0.58734639
 +/-0.0000064      Node   231.95337     -0.81372651     -0.55168578
e   0.9926766      Incl.   50.47533     -0.22763011     +0.59217144
From 108 observations 2016 Jan. 17-Aug. 23, mean residual 0".5.

・ 星図

・ 光度変化

        m1 = 3.0 + 5 logΔ + 20.0 log r

---------------------------------------------------------------------

軌道要素はM.P.E.C. 2016-U66に掲載されたものです。
星図はステラナビゲータ Ver.10 (アストロアーツ) で作成したものです。
光度グラフはComet for Windowsで作成したものです。

---------------------------------------------------------------------

Copyright(C) Seiichi Yoshida (comet@aerith.net). All rights reserved.